Location: Piotrkow Trybunalski
(51.4000°N, 19.6830°E)
Time: 15:47:35
(UTC+01:00)

Vanguard 2 - Pass Details

Date: 14 February 2023
Orbit: 553 x 2927 km, 32.9° (Epoch: 24 March)

Event Time Altitude Azimuth Distance (km) Brightness Sun altitude
Rises 22:47:38 0° 259° (W) 5,066 11.8 -49.1°
Reaches altitude 10° 22:51:22 10° 248° (WSW) 4,419 11.4 -49.3°
Enters shadow 22:51:41 11° 246° (WSW) 4,375 11.3 -49.4°
Maximum altitude 23:01:04 26° 199° (SSW) 3,975 - -49.9°
Drops below altitude 10° 23:13:23 10° 152° (SSE) 5,671 - -50.5°
Sets 23:19:08 0° 142° (SE) 6,770 - -50.8°
